CZ-6A DEB, 54518

Orbit data source: Space-Track

CZ-6A DEB, 54518 is space debris in SSO originally from a launch on Fri, 11 Nov 2022 UTC launched from the Taiyaun Space Center, China (TSC). Debris objects in space refer to the collection of defunct objects orbiting the Earth. Examples of debris include non-operational satellites, rocket bodies, and fragments generated from explosions, collisions, or faulty payload assembly.

Loading next visibility...
Identifier
54518, 2022-151JW
Orbit
SSO
Country
Flag of CNCN / PRC
Related business
Manufacturer
SAST
Mission
Spacecraft
Bus & Motor
Unknown
Mass
Unknown
Launch date (UTC)
2022-11-11 (4 years ago)
Launch vehicle
Unknown
Launch site
Taiyaun Space Center, China (TSC)
Object type
Payload
Rocket body
Debris
Shape & HBR
Unknown shape, 0.1 m
Radar Cross Section
Medium (>0.1 m² and <1 m²)

Expand to show TLE details & history
Last TLE update: 8 hours ago

TLE from 8 hours ago
0 CZ-6A DEB
1 54518U 22151JW  26254.64528388  .00000478  00000-0  18613-3 0  9998
2 54518  98.7669 295.0622 0125164 222.4229 136.7225 14.30252839199459
Epoch: 2026-09-11T15:29Z
TLE epoch observation values (Epoch: 2026-09-11T15:29:12.527Z)
Latitude
-0.00007°
Longitude
72.09435°
Altitude
859.674 km
Speed
7.389 km/s
True Right ascension
19h 40m 14s
True Declination
0° 00' 00"
Sunlit
Object was in full shadow at epoch
Visualization orbit readout
Latitude
Unknown
Longitude
Unknown
Altitude
Unknown
Speed
Unknown
Apparent Right ascension
Unknown
Apparent Declination
Unknown
Sunlit
N/A
Visualization observer readout
Local Sidereal Time
15:57:15
Azimuth
Unknown
Elevation
Unknown
Doppler factor
Unknown
Orbital elements
Apogee altitude
877.727 km
Perigee altitude
698.338 km
Semi-major axis
7,166.17 km
Eccentricity
0.01252
Inclination
98.7669°
RAAN
295.0622°
Arg. of periapsis
222.4229°
True anomaly
137.69462°
Mean anomaly
136.7225°
Eccentric anomaly
137.20966°
Mean motion
3.57777 °/min
Orbital period
100.62 mins
BSTAR
0.00018613
Loading maneuver chart data...
Computing Atmospheric mass density...
Loading historical data...
Loading historical data...
Loading historical data...
Loading historical data...
Loading historical data...
Loading historical data...
Loading historical data...

Documentation

Showing up to 5 results
|